Tracking 23446 objects as of 20-Jun-2021
HD Live streaming from Space Station
objects crossing your sky now

STARLINK-2502

Track STARLINK-2502 now!
10-day predictions
STARLINK-2502 is classified as:


NORAD ID: 48327
Int'l Code: 2021-036BD
Perigee: 553.0 km
Apogee: 555.0 km
Inclination: 53.1 °
Period: 95.6 minutes
Semi major axis: 6925 km
RCS: Unknown
Launch date: April 29, 2021
Source: United States (US)
Launch site: AIR FORCE EASTERN TEST RANGE (AFETR)
aabbcc
Your satellite tracking list
Your tracking list is empty




NASA's NSSDC Master Catalog

Two Line Element Set (TLE):
1 48327U 21036BD  21170.91668981 -.00182150  00000-0 -12488-1 0  9998
2 48327  53.0506 279.9210 0001464 118.8724 149.8706 15.06512350  1948
Source of the keplerian elements: AFSPC